Theta_e
309 309 309 309 309 309 309 310 310 309 309 309 308 304 302 301 303 313 317 313 311 310 310 310 310 311 312 316 319 322 328 329 328 328 327 327 327 327 327 327 327 327 327 327 324
310 310 310 310 310 309 309 310 311 310 308 309 307 304 301 303 313 315 314 308 310 309 311 311 311 312 314 315 317 322 326 326 326 326 327 327 328 327 325 327 327 327 327 325 324
309 309 310 310 309 309 309 310 310 310 310 309 305 302 303 307 317 314 310 311 310 311 314 312 312 313 313 315 317 319 323 323 323 324 325 326 326 326 324 325 326 327 325 324 322
308 309 309 310 310 310 310 309 310 310 310 309 303 303 304 314 317 316 310 309 309 313 314 314 312 312 313 314 316 317 319 320 321 322 320 322 323 323 322 321 320 321 320 320 322
308 308 307 307 308 309 309 309 310 309 309 307 303 305 313 313 311 315 311 311 314 313 313 314 313 313 313 313 314 314 316 316 316 316 317 318 319 319 320 319 317 317 319 320 321
307 306 306 306 306 307 308 309 309 309 307 305 306 305 314 309 311 315 318 315 313 312 312 313 313 313 313 313 314 314 314 314 315 315 316 315 316 316 317 317 316 317 318 319 320
307 306 305 305 306 307 309 309 308 307 306 306 307 312 312 309 311 313 317 314 312 311 312 312 312 313 313 313 313 313 313 313 314 314 314 314 314 315 316 316 316 316 319 319 319
308 307 305 306 307 308 308 307 307 307 304 304 307 313 311 307 310 313 314 313 312 312 311 311 311 313 313 314 313 313 313 313 313 312 313 313 313 315 315 315 316 316 315 318 319
305 305 306 307 307 307 307 309 310 307 305 304 314 314 314 313 314 312 313 311 310 310 311 310 311 313 313 314 315 314 313 314 314 314 314 314 314 315 315 315 315 316 315 316 317
304 305 305 306 307 307 310 312 311 313 312 313 314 317 315 313 314 313 311 310 310 311 311 312 313 314 314 314 314 315 314 314 314 315 314 314 315 315 315 315 315 315 316 315 315
306 305 306 306 307 306 311 312 315 316 315 315 314 314 314 313 313 311 310 310 311 311 312 312 313 314 314 312 312 312 313 313 314 313 314 314 315 315 315 315 315 316 316 316 316
305 305 306 306 306 308 311 314 312 312 316 313 313 313 312 312 313 312 311 311 311 312 311 311 312 312 312 311 311 312 313 314 313 313 312 313 313 314 314 314 314 316 316 316 316
306 307 306 305 308 310 312 311 310 310 316 313 313 312 313 313 313 312 312 312 311 312 311 312 311 310 311 311 311 312 313 313 312 312 312 313 314 313 313 313 314 314 315 316 316
306 310 306 308 311 311 313 311 310 310 318 314 313 313 313 313 313 312 312 312 312 312 311 311 311 310 311 311 310 312 311 310 311 313 313 313 313 313 313 313 313 314 314 315 315
308 308 305 309 313 313 311 310 311 312 320 314 312 312 312 312 311 311 311 312 312 312 311 312 311 311 311 312 311 311 311 311 312 313 314 314 315 314 313 313 313 313 313 314 314
309 307 309 311 312 311 311 311 313 322 320 313 312 312 313 312 312 313 313 311 311 312 312 312 312 311 312 311 311 312 311 313 314 314 314 314 314 313 314 314 313 314 314 314 315
311 307 309 310 314 313 312 315 321 321 315 315 313 312 313 314 314 314 315 315 314 314 315 313 312 311 311 312 313 312 314 314 313 315 313 314 314 314 314 314 314 314 314 314 316
312 311 311 312 312 313 313 318 320 317 316 314 314 313 314 314 314 314 314 315 314 314 314 315 315 312 312 312 313 314 314 314 313 313 313 314 315 317 314 314 314 314 315 315 316
311 314 315 312 311 311 315 318 318 316 314 314 314 314 314 314 314 313 313 313 313 313 315 314 315 313 312 313 313 314 314 313 314 314 316 315 315 315 315 314 314 314 314 315 315
312 315 315 310 309 313 317 316 317 314 312 313 315 313 314 314 313 312 313 312 312 312 313 313 316 314 313 313 313 313 313 314 315 317 316 315 316 316 316 315 314 314 314 314 315
313 316 314 309 310 315 318 315 315 314 313 314 315 315 314 313 313 313 313 312 311 312 313 313 314 313 313 313 313 314 313 313 315 318 320 318 315 316 315 315 315 315 314 315 315
313 314 312 310 315 314 315 314 309 312 312 313 313 314 314 314 314 313 313 313 311 311 312 312 314 315 313 313 312 313 314 315 319 318 316 316 316 315 315 315 315 315 315 315 316
309 313 311 310 316 311 311 311 310 310 311 313 313 313 313 314 314 313 313 312 311 312 312 314 315 316 314 315 314 315 315 315 316 317 321 321 318 315 315 315 316 316 316 315 315
307 310 308 310 308 308 308 308 311 311 312 312 312 312 313 313 312 312 311 311 311 311 310 312 315 315 315 314 316 315 315 314 316 321 318 317 316 315 316 316 316 316 316 315 314
305 308 307 306 306 307 308 308 308 310 310 311 311 311 312 312 311 311 311 310 310 310 311 313 315 313 313 312 312 312 312 312 313 317 319 317 317 316 316 316 316 316 316 315 314
306 304 305 305 306 307 306 307 308 309 308 306 308 308 310 311 310 310 310 309 309 309 312 314 317 313 313 311 312 312 312 312 313 315 316 316 317 316 315 315 316 315 315 315 314
302 303 305 304 305 305 306 306 305 305 305 306 307 307 306 306 306 307 307 308 309 310 311 312 314 316 315 311 313 314 314 315 315 315 315 316 315 315 316 315 315 314 313 313 312
Wind_Speed
18 17 17 18 18 18 18 17 16 15 14 14 14 13 14 17 19 10 8 3 3 4 2 5 6 8 10 12 11 12 12 18 24 21 15 8 12 9 4 7 10 7 8 11 13
18 19 19 19 19 19 19 18 17 16 14 14 13 12 13 15 14 9 5 4 4 2 4 7 9 10 11 13 9 14 15 26 21 19 13 15 17 9 6 14 15 13 14 10 15
20 20 20 19 19 19 20 19 18 16 15 13 12 10 12 11 9 4 3 5 5 3 0 2 5 10 13 11 14 12 21 18 14 12 17 18 18 10 11 16 18 16 11 16 20
21 21 21 20 20 19 18 18 18 16 14 13 9 9 9 6 1 5 6 6 4 3 2 3 5 10 12 12 13 12 15 18 12 12 9 16 17 13 14 17 13 13 11 15 15
22 22 21 21 21 20 19 18 16 15 13 11 7 7 5 6 3 4 7 6 4 3 3 2 5 4 11 10 7 16 11 9 15 14 15 14 16 17 18 10 13 17 11 11 13
23 22 22 23 22 21 20 19 16 14 11 8 5 3 5 8 4 3 8 7 4 4 2 3 0 3 3 6 11 1 11 12 14 16 14 16 18 16 18 8 9 14 12 14 15
23 23 24 23 23 22 20 19 18 13 9 6 4 2 7 5 4 3 6 6 5 4 3 1 2 6 1 5 2 7 12 15 16 17 15 10 18 23 16 11 17 19 12 11 8
24 25 25 24 22 22 20 19 14 10 8 5 3 4 5 2 4 6 6 7 6 5 5 4 5 6 7 1 6 11 8 13 9 7 9 8 16 4 3 5 4 7 8 9 8
26 26 25 23 21 18 16 7 5 3 6 6 3 5 2 2 7 4 7 3 3 5 5 3 6 5 6 10 8 8 10 8 5 6 3 9 10 6 6 8 8 7 6 8 8
27 27 24 22 18 13 3 6 6 9 8 5 4 5 4 5 2 1 4 5 5 4 5 9 6 9 8 9 9 8 9 8 9 7 9 12 14 13 14 13 12 12 11 10 9
27 27 23 18 12 6 3 2 5 6 7 8 2 4 2 1 3 6 5 6 7 8 10 8 10 10 7 2 6 5 7 9 5 6 9 13 15 16 16 17 17 15 14 14 10
29 25 20 10 3 5 1 3 6 5 5 5 7 8 7 3 5 10 6 7 7 7 4 7 12 5 3 5 7 8 9 11 8 6 10 14 18 20 19 18 19 18 17 16 14
29 21 14 3 8 6 3 6 8 3 6 2 2 4 5 8 4 5 11 8 9 8 7 9 6 4 8 8 9 10 10 8 9 11 15 13 21 13 8 8 11 12 14 10 11
26 16 7 9 3 1 2 8 9 3 5 5 5 5 7 4 5 3 8 7 7 9 5 8 6 7 8 7 8 11 5 7 9 11 9 4 6 7 11 7 8 7 8 9 9
19 11 4 2 2 1 7 11 4 4 4 5 5 5 3 8 3 6 2 7 14 10 8 5 10 11 10 10 5 11 2 9 11 13 15 15 8 5 2 9 6 3 3 6 6
12 6 4 2 1 5 9 5 4 6 2 5 3 4 8 8 6 1 5 6 4 12 14 18 11 9 13 6 8 3 11 14 15 10 12 10 7 7 6 7 6 5 6 5 7
7 3 3 3 5 9 8 4 5 5 3 4 5 5 7 8 8 8 9 11 10 11 15 17 16 14 10 12 8 10 10 8 8 9 6 5 7 11 2 4 8 12 10 8 4
4 1 1 2 7 7 5 5 6 1 4 1 6 8 12 7 12 8 11 12 12 12 14 14 13 15 12 15 13 10 9 8 8 8 6 5 7 3 6 4 8 11 10 9 7
4 2 3 4 6 6 6 6 3 2 3 4 9 12 13 8 7 6 12 13 12 8 15 9 15 3 5 7 9 7 9 6 11 15 13 12 14 12 15 7 6 5 3 7 8
6 6 2 9 4 6 5 5 4 3 4 5 10 6 9 8 8 6 7 1 4 6 6 9 12 11 8 6 12 13 10 7 9 8 14 10 12 10 14 3 4 4 6 6 6
3 4 4 9 2 5 5 4 5 4 5 6 9 13 14 13 12 14 6 5 6 8 6 11 10 14 8 14 16 8 12 10 10 7 6 9 5 6 4 6 6 8 5 8 12
4 3 4 5 5 2 5 3 4 9 7 10 8 13 15 14 13 13 11 8 1 6 10 4 5 11 14 8 7 13 15 14 8 10 11 11 21 9 8 6 6 10 15 17 16
6 3 2 4 3 4 4 8 5 9 8 5 7 5 6 10 8 8 9 5 3 9 3 2 6 8 12 9 8 11 13 12 13 10 15 12 14 2 8 14 17 18 16 15 12
4 3 2 2 2 5 6 4 4 3 9 7 10 8 11 13 11 9 6 3 5 6 2 4 12 13 13 14 5 5 8 11 10 7 16 21 30 23 23 24 21 16 17 15 14
4 3 3 4 1 7 3 5 8 5 2 6 5 2 8 12 13 13 13 11 9 9 11 10 17 19 20 21 20 19 19 21 22 24 20 28 28 27 25 25 23 20 17 19 20
5 4 2 5 4 6 0 1 6 6 4 8 10 13 9 14 14 18 17 17 16 12 12 7 6 13 18 17 18 21 22 24 26 27 28 30 31 25 25 17 16 16 19 22 24
2 1 4 1 2 4 2 4 6 8 7 6 10 11 15 16 14 15 15 16 14 11 10 9 5 6 12 13 12 13 22 23 23 23 20 21 23 21 23 20 18 17 21 25 25
Wind_Direction
349 345 342 337 333 329 326 324 321 317 315 313 313 312 310 312 317 292 261 277 220 186 180 240 221 205 210 223 225 226 236 241 237 236 247 231 222 208 216 248 276 284 294 321 330
343 341 339 337 334 331 326 322 319 316 312 310 308 306 310 318 305 258 261 210 136 151 239 225 206 198 207 213 206 216 227 241 246 246 245 237 214 214 255 243 257 272 282 289 314
342 339 335 333 330 328 325 322 319 315 312 308 305 307 314 326 266 103 150 155 158 139 43 229 217 220 227 217 208 223 243 244 250 275 268 265 251 240 238 252 257 279 304 305 307
341 336 333 329 328 326 323 320 318 314 309 308 302 309 316 291 308 104 147 152 155 188 220 183 207 208 222 213 212 247 237 260 241 232 260 259 264 256 247 247 299 289 295 302 300
339 337 331 329 326 325 322 318 314 312 308 302 303 323 330 232 239 127 166 173 182 233 252 226 224 225 223 226 212 237 232 233 247 251 244 261 257 261 264 261 281 278 267 283 293
337 334 333 328 325 321 320 317 311 306 300 297 303 356 269 249 110 128 167 182 224 248 205 233 254 307 252 235 230 236 256 243 244 253 250 252 263 256 256 227 250 261 267 287 289
335 332 331 327 322 319 319 315 308 298 284 271 278 297 257 268 162 145 185 218 231 247 238 213 278 245 172 203 217 245 251 238 240 246 248 265 261 249 262 278 256 261 263 272 287
331 331 329 326 323 321 320 314 307 282 243 216 218 248 268 187 210 239 210 226 226 227 265 270 245 280 252 83 210 237 243 240 178 225 207 222 258 129 172 273 244 304 314 266 248
330 331 328 326 324 323 325 359 22 38 169 164 182 247 158 185 207 180 212 216 170 208 228 237 232 268 203 231 220 202 257 223 166 201 222 228 253 172 231 274 279 265 266 274 255
332 330 330 329 325 329 49 99 74 66 108 172 253 236 220 154 155 230 196 232 237 189 175 209 223 234 219 229 253 210 234 209 254 172 248 250 249 248 255 263 267 269 266 253 265
332 332 329 329 328 348 107 247 213 181 212 286 360 312 171 294 227 193 192 199 211 232 239 201 243 223 228 287 322 267 258 260 247 288 279 271 273 269 260 256 255 252 259 266 264
335 334 334 342 33 92 113 333 34 335 295 223 259 257 257 278 218 206 210 226 209 240 205 217 233 260 217 229 245 247 255 257 279 271 288 276 278 277 263 256 251 251 247 252 259
338 343 347 87 115 80 48 45 337 288 260 135 212 216 191 205 220 220 210 226 238 237 223 280 84 159 206 210 233 236 268 286 284 311 276 280 272 246 225 238 243 245 255 246 251
343 350 31 121 130 137 99 342 331 233 263 130 169 149 183 228 233 212 224 229 219 262 209 250 127 213 218 244 246 266 191 269 278 286 287 343 287 261 233 239 207 241 254 254 256
354 2 70 43 63 276 331 325 309 234 266 129 130 114 159 227 13 152 182 228 255 233 235 230 198 214 247 267 267 270 285 268 284 279 285 260 240 255 167 222 237 176 258 263 251
1 28 78 31 65 351 326 308 223 232 256 165 180 215 214 214 226 238 220 219 286 267 240 262 278 274 270 288 249 283 258 264 256 260 249 234 245 267 188 224 172 284 288 285 286
357 52 65 36 347 330 320 220 235 258 96 181 225 237 264 247 241 244 250 234 248 243 239 236 234 233 249 238 207 235 256 272 241 204 252 117 268 251 190 232 288 304 304 297 327
325 256 265 317 322 319 269 231 253 61 241 65 273 262 259 258 240 252 260 257 216 262 263 268 248 207 200 230 271 218 275 282 285 272 293 239 253 102 106 310 277 285 275 271 252
298 231 228 319 317 304 253 241 295 296 347 288 287 260 259 229 267 233 263 273 286 255 256 283 255 131 251 227 232 223 234 292 286 272 268 258 261 241 217 215 260 286 293 237 258
311 254 215 334 304 261 250 274 274 231 296 259 278 267 273 250 235 241 279 131 250 236 258 279 276 224 240 237 235 249 293 229 214 266 257 250 266 270 178 261 300 302 293 296 296
276 250 63 342 259 236 257 306 287 266 281 271 275 271 278 276 274 274 267 259 251 255 250 281 262 272 209 240 254 190 225 227 288 243 257 283 274 64 308 294 282 304 300 312 294
309 258 14 339 255 227 275 345 5 274 253 267 274 271 274 279 279 271 271 255 76 262 248 267 291 276 269 259 278 270 272 218 226 240 245 274 273 336 301 284 309 277 297 301 299
333 306 351 316 306 317 322 282 266 281 274 264 270 265 314 287 287 269 281 21 277 251 296 303 242 264 242 186 209 234 227 245 245 270 259 264 262 198 237 269 293 302 291 298 297
308 303 139 58 34 326 337 296 284 287 283 290 279 286 275 270 257 268 264 235 235 260 59 297 264 257 266 302 218 256 242 220 236 252 257 251 272 272 283 288 296 290 286 299 297
7 28 352 313 43 331 295 301 303 306 267 285 263 251 306 288 281 277 267 269 244 245 246 248 259 260 261 269 274 276 270 267 258 246 241 267 269 279 283 292 298 292 290 290 288
336 334 214 292 296 291 308 297 314 326 287 297 283 303 295 279 286 282 293 288 283 279 256 234 257 266 264 264 264 264 262 257 256 259 264 269 273 278 279 294 305 301 303 296 297
3 253 278 124 259 288 349 341 317 310 280 269 294 299 290 291 297 294 288 282 271 264 263 285 267 276 269 272 295 268 252 247 251 254 265 277 284 299 295 299 299 303 300 294 293